Sturgis, MI

10:26 AM EDT on September 30, 2016 (GMT -0400)
Kirsch Municipal

Weather History for KIRS - January, 2013

Change the Weather History Date:

Thursday, January 10, 2013

  Actual Average (KHAI) Record (KHAI)
Temperature  
Mean Temperature 31 °F -  
Max Temperature 39 °F 28 °F 58 °F (1975)
Min Temperature 23 °F 14 °F -14 °F (1982)
Degree Days  
Heating Degree Days 34    
Moisture  
Dew Point 27 °F    
Average Humidity 81    
Maximum Humidity 93    
Minimum Humidity 65    
Precipitation  
Precipitation 0.00 in - - ()
Sea Level Pressure  
Sea Level Pressure 30.38 in    
Wind  
Wind Speed 5 mph (SE)    
Max Wind Speed 17 mph    
Max Gust Speed 24 mph    
Visibility 9 miles    
Events Rain , Snow    
Averages and records for this station are not official NWS values.
T = Trace of Precipitation, MM = Missing Value Source: NWS Daily Summary

Daily Weather History Graph

Daily Weather History Graph

Search for Another Location

Airport or City:

Trip Planner

Search our weather history database for the weather conditions in past years. The results will help you decide how hot, cold, wet, or windy it might be!

Date:

Astronomy

Jan. 10, 2013 Rise Set
Actual Time 8:08 AM EST 5:30 PM EST
Civil Twilight 7:37 AM EST 6:01 PM EST
Nautical Twilight 7:02 AM EST 6:36 PM EST
Astronomical Twilight 6:29 AM EST 7:09 PM EST
Moon 6:47 AM EST (1/10) 4:37 PM EST (1/10)
Length of Visible Light 10h 24m
Length of Day
9h 22m
Waning Crescent, 2% of the Moon is Illuminated
Jan 10
Waning Crescent
Jan 11
New
Jan 18
First Quarter
Jan 26
Full
Feb 3
Last Quarter

Hourly Weather History & Observations

Time (EST) Temp. Windchill Dew Point Humidity Pressure Visibility Wind Dir Wind Speed Gust Speed Precip Events Conditions
12:15 AM 28.4 °F 24.6 °F 24.8 °F 86% 30.46 in 10.0 mi SSW 3.5 mph - N/A   Clear
12:35 AM 26.6 °F - 23.0 °F 86% 30.48 in 10.0 mi Calm Calm - N/A   Clear
12:55 AM 28.4 °F - 24.8 °F 86% 30.49 in 10.0 mi Calm Calm - N/A   Clear
1:15 AM 28.4 °F - 24.8 °F 86% 30.50 in 10.0 mi Calm Calm - N/A   Clear
1:34 AM 26.6 °F - 24.8 °F 93% 30.50 in 10.0 mi Calm Calm - N/A   Clear
1:55 AM 28.4 °F - 24.8 °F 86% 30.50 in 10.0 mi Calm Calm - N/A   Clear
2:15 AM 26.6 °F - 23.0 °F 86% 30.50 in 10.0 mi Calm Calm - N/A   Clear
2:34 AM 28.4 °F - 24.8 °F 86% 30.51 in 10.0 mi Calm Calm - N/A   Clear
2:54 AM 28.4 °F - 24.8 °F 86% 30.51 in 10.0 mi Calm Calm - N/A   Clear
3:15 AM 26.6 °F - 24.8 °F 93% 30.51 in 10.0 mi Calm Calm - N/A   Clear
3:35 AM 26.6 °F - 23.0 °F 86% 30.50 in 10.0 mi Calm Calm - N/A   Clear
3:55 AM 26.6 °F - 24.8 °F 93% 30.50 in 10.0 mi Calm Calm - N/A   Clear
4:15 AM 24.8 °F - 21.2 °F 86% 30.50 in 10.0 mi Calm Calm - N/A   Clear
4:35 AM 26.6 °F - 23.0 °F 86% 30.49 in 10.0 mi Calm Calm - N/A   Clear
4:55 AM 24.8 °F - 23.0 °F 93% 30.50 in 10.0 mi Calm Calm - N/A   Clear
5:15 AM 24.8 °F - 23.0 °F 93% 30.50 in 10.0 mi Calm Calm - N/A   Clear
5:35 AM 24.8 °F - 21.2 °F 86% 30.49 in 10.0 mi Calm Calm - N/A   Clear
5:55 AM 24.8 °F - 21.2 °F 86% 30.49 in 10.0 mi Calm Calm - N/A   Clear
6:15 AM 24.8 °F - 21.2 °F 86% 30.49 in 10.0 mi Calm Calm - N/A   Clear
6:35 AM 24.8 °F - 23.0 °F 93% 30.50 in 10.0 mi Calm Calm - N/A   Clear
6:55 AM 24.8 °F - 21.2 °F 86% 30.50 in 10.0 mi Calm Calm - N/A   Clear
7:15 AM 24.8 °F - 21.2 °F 86% 30.49 in 10.0 mi Calm Calm - N/A   Clear
7:35 AM 23.0 °F - 21.2 °F 93% 30.49 in 10.0 mi Calm Calm - N/A   Clear
7:55 AM 23.0 °F - 21.2 °F 93% 30.49 in 10.0 mi Calm Calm - N/A   Clear
8:15 AM 24.8 °F 20.5 °F 21.2 °F 86% 30.50 in 10.0 mi East 3.5 mph - N/A   Clear
8:35 AM 24.8 °F 20.5 °F 23.0 °F 93% 30.51 in 10.0 mi ESE 3.5 mph - N/A   Clear
8:55 AM 26.6 °F - 24.8 °F 93% 30.51 in 10.0 mi Calm Calm - N/A   Clear
9:15 AM 28.4 °F 24.6 °F 26.6 °F 93% 30.51 in 10.0 mi East 3.5 mph - N/A   Clear
9:35 AM 30.2 °F 24.3 °F 26.6 °F 86% 30.50 in 10.0 mi East 5.8 mph - N/A   Clear
9:55 AM 32.0 °F 26.4 °F 26.6 °F 80% 30.50 in 10.0 mi East 5.8 mph - N/A   Clear
10:15 AM 33.8 °F 26.4 °F 28.4 °F 81% 30.49 in 10.0 mi East 9.2 mph - N/A   Clear
10:34 AM 33.8 °F 27.0 °F 28.4 °F 81% 30.49 in 10.0 mi ESE 8.1 mph - N/A   Clear
10:54 AM 35.6 °F 28.0 °F 28.4 °F 75% 30.48 in 10.0 mi East 10.4 mph - N/A   Clear
11:15 AM 35.6 °F 28.0 °F 28.4 °F 75% 30.48 in 10.0 mi ESE 10.4 mph - N/A   Clear
11:35 AM 37.4 °F 30.8 °F 28.4 °F 70% 30.47 in 10.0 mi SE 9.2 mph - N/A   Clear
11:55 AM 37.4 °F 30.3 °F 28.4 °F 70% 30.45 in 10.0 mi SE 10.4 mph - N/A   Scattered Clouds
12:14 PM 37.4 °F 30.8 °F 28.4 °F 70% 30.43 in 10.0 mi SE 9.2 mph - N/A   Clear
12:35 PM 39.2 °F 32.0 °F 28.4 °F 65% 30.42 in 10.0 mi SE 11.5 mph 19.6 mph N/A   Clear
12:55 PM 39.2 °F 32.0 °F 28.4 °F 65% 30.41 in 10.0 mi SE 11.5 mph 18.4 mph N/A   Clear
1:15 PM 39.2 °F 32.0 °F 28.4 °F 65% 30.40 in 10.0 mi SSE 11.5 mph 16.1 mph N/A   Clear
1:35 PM 39.2 °F 31.2 °F 28.4 °F 65% 30.38 in 10.0 mi SE 13.8 mph - N/A   Clear
1:55 PM 39.2 °F 32.0 °F 28.4 °F 65% 30.39 in 10.0 mi SE 11.5 mph 17.3 mph N/A   Clear
2:14 PM 37.4 °F 29.8 °F 28.4 °F 70% 30.36 in 10.0 mi SE 11.5 mph - N/A   Clear
2:35 PM 39.2 °F 31.2 °F 28.4 °F 65% 30.35 in 10.0 mi SE 13.8 mph 19.6 mph N/A   Clear
2:55 PM 39.2 °F 32.5 °F 28.4 °F 65% 30.34 in 10.0 mi ESE 10.4 mph - N/A   Clear
3:15 PM 39.2 °F 33.0 °F 28.4 °F 65% 30.34 in 10.0 mi SE 9.2 mph 17.3 mph N/A   Clear
3:35 PM 39.2 °F 32.0 °F 28.4 °F 65% 30.34 in 10.0 mi SE 11.5 mph - N/A   Clear
3:55 PM 39.2 °F 33.0 °F 28.4 °F 65% 30.32 in 10.0 mi ESE 9.2 mph - N/A   Clear
4:15 PM 37.4 °F 30.3 °F 28.4 °F 70% 30.30 in 10.0 mi East 10.4 mph - N/A   Clear
4:35 PM 37.4 °F 30.3 °F 28.4 °F 70% 30.29 in 10.0 mi East 10.4 mph 19.6 mph N/A   Clear
4:55 PM 37.4 °F 29.8 °F 28.4 °F 70% 30.29 in 10.0 mi ESE 11.5 mph - N/A   Clear
5:14 PM 37.4 °F 29.3 °F 28.4 °F 70% 30.29 in 10.0 mi SE 12.7 mph 16.1 mph N/A   Clear
5:34 PM 37.4 °F 30.3 °F 28.4 °F 70% 30.28 in 10.0 mi SE 10.4 mph - N/A   Mostly Cloudy
5:54 PM 37.4 °F 28.9 °F 28.4 °F 70% 30.27 in 10.0 mi SE 13.8 mph 17.3 mph N/A   Mostly Cloudy
6:15 PM 37.4 °F 30.3 °F 28.4 °F 70% 30.27 in 10.0 mi SE 10.4 mph 19.6 mph N/A   Overcast
6:35 PM 37.4 °F 30.3 °F 28.4 °F 70% 30.26 in 10.0 mi SE 10.4 mph - N/A   Overcast
6:55 PM 37.4 °F 29.3 °F 30.2 °F 75% 30.26 in 7.0 mi SE 12.7 mph - N/A Rain Rain
7:15 PM 35.6 °F 27.1 °F 30.2 °F 81% 30.25 in 10.0 mi ESE 12.7 mph 17.3 mph N/A   Overcast
7:34 PM 35.6 °F 27.5 °F 30.2 °F 81% 30.23 in 7.0 mi ESE 11.5 mph - N/A   Overcast
7:55 PM 35.6 °F 26.2 °F 32.0 °F 87% 30.21 in 5.0 mi SE 15.0 mph 18.4 mph N/A   Overcast
8:15 PM 35.6 °F 26.6 °F 32.0 °F 87% 30.19 in 7.0 mi ESE 13.8 mph 19.6 mph N/A   Overcast
8:34 PM 35.6 °F 27.1 °F 32.0 °F 87% 30.18 in 10.0 mi ESE 12.7 mph 19.6 mph N/A   Overcast
8:55 PM 35.6 °F 27.5 °F 32.0 °F 87% 30.17 in 10.0 mi ESE 11.5 mph - N/A   Overcast
9:14 PM 35.6 °F 26.6 °F 32.0 °F 87% 30.15 in 10.0 mi ESE 13.8 mph 18.4 mph N/A   Overcast
9:55 PM 37.4 °F 29.3 °F 30.2 °F 75% 30.11 in 10.0 mi ESE 12.7 mph 19.6 mph N/A   Overcast
10:15 PM 37.4 °F 27.8 °F 32.0 °F 81% 30.10 in 3.0 mi SE 17.3 mph 24.2 mph N/A Rain Rain
10:35 PM 35.6 °F 25.9 °F 33.8 °F 93% 30.10 in 7.0 mi SE 16.1 mph 21.9 mph N/A   Overcast
10:55 PM 35.6 °F 25.9 °F 33.8 °F 93% 30.08 in 2.0 mi SE 16.1 mph 24.2 mph N/A Snow Light Snow
11:15 PM 35.6 °F 27.1 °F 33.8 °F 93% 30.08 in 1.8 mi SE 12.7 mph 18.4 mph N/A Snow Light Snow
11:35 PM 35.6 °F 26.2 °F 33.8 °F 93% 30.07 in 4.0 mi SE 15.0 mph 20.7 mph N/A   Overcast
11:55 PM 35.6 °F 25.9 °F 33.8 °F 93% 30.05 in 5.0 mi SE 16.1 mph 21.9 mph N/A   Overcast